VLG9LM LEBL-LFMN

Flight info

Callsign VLG9LM
Flight time 0h 52m
Altitude 30000
Route DALIN N870 DIBER/N0446F320 DCT SOSUR DCT SOFFY/N0444F300 UM976 MRM UY122 ABLAK
Aircraft A321/M-SDE3FGHIRWY/LB1

Departure

Time 2026-05-06 10:25
Airport Josep Tarradellas Barcelona-El Prat Airport (LEBL)

Arrival

Time 2026-05-06 11:17
Airport Nice-Côte d'Azur Airport (LFMN)
Time Latitude Longitude Altitude Speed Heading
2026-05-06 10:19 41.29249 2.07977 3 ft 2 kts 59°
2026-05-06 10:19 41.29276 2.08045 3 ft 14 kts 67°
2026-05-06 10:20 41.29331 2.08210 3 ft 23 kts 65°
2026-05-06 10:20 41.29355 2.08379 4 ft 5 kts 131°
2026-05-06 10:20 41.29313 2.08413 3 ft 9 kts 152°
2026-05-06 10:20 41.29239 2.08459 3 ft 16 kts 155°
2026-05-06 10:21 41.29104 2.08539 4 ft 27 kts 156°
2026-05-06 10:21 41.28906 2.08655 6 ft 36 kts 154°
2026-05-06 10:21 41.28893 2.08817 3 ft 22 kts 65°
2026-05-06 10:21 41.28973 2.09043 3 ft 32 kts 65°
2026-05-06 10:22 41.29071 2.09336 4 ft 39 kts 64°
2026-05-06 10:22 41.29193 2.09686 3 ft 43 kts 66°
2026-05-06 10:22 41.29284 2.10003 3 ft 13 kts 94°
2026-05-06 10:22 41.29274 2.10047 3 ft 5 kts 95°
2026-05-06 10:23 41.29247 2.10156 4 ft 17 kts 113°
2026-05-06 10:23 41.29251 2.10303 5 ft 7 kts 114°
2026-05-06 10:23 41.29246 2.10304 7 ft 1 kts 146°
2026-05-06 10:23 41.29194 2.10279 5 ft 3 kts 231°
2026-05-06 10:24 41.29187 2.10233 7 ft 0 kts 245°
2026-05-06 10:24 41.29127 2.10057 7 ft 62 kts 246°
2026-05-06 10:24 41.28824 2.09169 7 ft 145 kts 245°
2026-05-06 10:24 41.28314 2.07689 221 ft 191 kts 246°
2026-05-06 10:25 41.27715 2.06020 921 ft 208 kts 243°
2026-05-06 10:25 41.26756 2.04468 1675 ft 231 kts 216°
2026-05-06 10:25 41.25283 2.03619 2233 ft 248 kts 191°
2026-05-06 10:25 41.23434 2.03724 2658 ft 284 kts 166°
2026-05-06 10:26 41.21532 2.04530 3697 ft 282 kts 165°
2026-05-06 10:26 41.19694 2.05150 5228 ft 264 kts 171°
2026-05-06 10:26 41.17950 2.05552 6674 ft 249 kts 175°
2026-05-06 10:26 41.16191 2.05652 7489 ft 259 kts 184°
2026-05-06 10:27 41.14374 2.05584 8401 ft 263 kts 185°
2026-05-06 10:27 41.12530 2.05485 9373 ft 266 kts 186°
2026-05-06 10:27 41.10665 2.05380 10280 ft 270 kts 186°
2026-05-06 10:27 41.08783 2.05280 11173 ft 272 kts 186°
2026-05-06 10:28 41.06877 2.05184 12049 ft 275 kts 186°
2026-05-06 10:28 41.04954 2.05091 12924 ft 278 kts 186°
2026-05-06 10:28 41.03015 2.04999 13795 ft 281 kts 185°
2026-05-06 10:28 41.01071 2.05413 14601 ft 290 kts 162°
2026-05-06 10:29 40.99369 2.06919 15305 ft 305 kts 137°
2026-05-06 10:29 40.98239 2.09331 15957 ft 321 kts 115°
2026-05-06 10:29 40.97485 2.12185 16621 ft 329 kts 111°
2026-05-06 10:29 40.96795 2.15099 17294 ft 334 kts 112°
2026-05-06 10:30 40.96086 2.18048 17969 ft 339 kts 113°
2026-05-06 10:30 40.95339 2.21027 18582 ft 343 kts 114°
2026-05-06 10:30 40.94587 2.24033 19193 ft 348 kts 109°
2026-05-06 10:30 40.94399 2.27276 19693 ft 365 kts 86°
2026-05-06 10:31 40.95094 2.30605 19867 ft 387 kts 64°
2026-05-06 10:31 40.96522 2.33711 20051 ft 404 kts 53°
2026-05-06 10:31 40.98213 2.36774 20208 ft 421 kts 52°
2026-05-06 10:31 40.99991 2.39937 20387 ft 436 kts 52°
2026-05-06 10:32 41.01816 2.43197 20824 ft 443 kts 52°
2026-05-06 10:32 41.03651 2.46500 21357 ft 447 kts 53°
2026-05-06 10:32 41.05500 2.49847 21875 ft 452 kts 53°
2026-05-06 10:32 41.07360 2.53227 22401 ft 457 kts 53°
2026-05-06 10:33 41.09241 2.56652 22905 ft 461 kts 53°
2026-05-06 10:33 41.11136 2.60106 23409 ft 466 kts 53°
2026-05-06 10:33 41.13052 2.63598 23849 ft 470 kts 53°
2026-05-06 10:33 41.14983 2.67122 24304 ft 473 kts 53°
2026-05-06 10:34 41.16922 2.70663 24739 ft 477 kts 53°
2026-05-06 10:34 41.18876 2.74235 25147 ft 480 kts 53°
2026-05-06 10:34 41.20847 2.77842 25545 ft 484 kts 53°
2026-05-06 10:34 41.22827 2.81468 25965 ft 487 kts 53°
2026-05-06 10:35 41.24818 2.85117 26366 ft 490 kts 53°
2026-05-06 10:35 41.26826 2.88801 26747 ft 493 kts 53°
2026-05-06 10:35 41.28847 2.92514 27112 ft 497 kts 53°
2026-05-06 10:35 41.30874 2.96242 27489 ft 500 kts 53°
2026-05-06 10:36 41.32918 3.00006 27846 ft 503 kts 53°
2026-05-06 10:36 41.34970 3.03789 28196 ft 505 kts 53°
2026-05-06 10:36 41.37030 3.07590 28523 ft 509 kts 53°
2026-05-06 10:36 41.39099 3.11413 28854 ft 511 kts 53°
2026-05-06 10:37 41.41187 3.15276 29168 ft 514 kts 53°
2026-05-06 10:37 41.43280 3.19152 29491 ft 516 kts 53°
2026-05-06 10:37 41.45376 3.23041 29783 ft 519 kts 53°
2026-05-06 10:37 41.47491 3.26967 29976 ft 522 kts 53°
2026-05-06 10:38 41.51711 3.34818 29975 ft 520 kts 53°
2026-05-06 10:38 41.55926 3.42682 29976 ft 520 kts 53°
2026-05-06 10:39 41.60128 3.50541 29967 ft 520 kts 54°
2026-05-06 10:39 41.64334 3.58427 29970 ft 521 kts 54°
2026-05-06 10:40 41.68504 3.66266 29972 ft 521 kts 54°
2026-05-06 10:40 41.72696 3.74167 29974 ft 521 kts 54°
2026-05-06 10:41 41.77573 3.81235 29978 ft 516 kts 36°
2026-05-06 10:41 41.83203 3.87212 29976 ft 516 kts 35°
2026-05-06 10:42 41.88821 3.93208 29971 ft 516 kts 36°
2026-05-06 10:42 41.94420 3.99234 29983 ft 516 kts 36°
2026-05-06 10:43 42.00050 4.05316 29972 ft 516 kts 36°
2026-05-06 10:44 42.08432 4.14397 29983 ft 516 kts 36°
2026-05-06 10:44 42.13980 4.20426 29975 ft 516 kts 36°
2026-05-06 10:45 42.19564 4.26508 29974 ft 516 kts 36°
2026-05-06 10:45 42.25147 4.32604 29973 ft 516 kts 36°
2026-05-06 10:46 42.30765 4.38752 29972 ft 517 kts 36°
2026-05-06 10:46 42.36305 4.44829 29970 ft 517 kts 36°
2026-05-06 10:47 42.41893 4.50974 29973 ft 517 kts 36°
2026-05-06 10:47 42.47490 4.57142 29966 ft 517 kts 36°
2026-05-06 10:48 42.53069 4.63304 29966 ft 517 kts 37°
2026-05-06 10:48 42.58612 4.69442 29959 ft 517 kts 37°
2026-05-06 10:49 42.64183 4.75624 29962 ft 517 kts 37°
2026-05-06 10:49 42.69754 4.81822 29954 ft 518 kts 37°
2026-05-06 10:50 42.75322 4.88031 29958 ft 518 kts 37°
2026-05-06 10:50 42.80892 4.94259 29953 ft 518 kts 37°
2026-05-06 10:51 42.85514 4.99437 29935 ft 518 kts 37°
2026-05-06 10:51 42.88293 5.02555 29710 ft 516 kts 37°
2026-05-06 10:51 42.91019 5.05618 29440 ft 512 kts 37°
2026-05-06 10:51 42.93762 5.08704 29152 ft 510 kts 37°
2026-05-06 10:52 42.96528 5.11819 28867 ft 508 kts 37°
2026-05-06 10:52 42.99215 5.14844 28595 ft 505 kts 36°
2026-05-06 10:52 43.02108 5.17616 28111 ft 499 kts 26°
2026-05-06 10:52 43.05182 5.19730 27600 ft 489 kts 17°
2026-05-06 10:53 43.07921 5.21179 27352 ft 481 kts 16°
2026-05-06 10:53 43.10991 5.22802 27096 ft 482 kts 16°
2026-05-06 10:53 43.13836 5.24315 26850 ft 482 kts 16°
2026-05-06 10:53 43.17002 5.26008 26594 ft 479 kts 16°
2026-05-06 10:54 43.20096 5.27665 26358 ft 477 kts 16°
2026-05-06 10:54 43.23183 5.29319 26102 ft 475 kts 16°
2026-05-06 10:54 43.26251 5.30964 25784 ft 474 kts 16°
2026-05-06 10:54 43.29313 5.32608 25414 ft 469 kts 17°
2026-05-06 10:55 43.32216 5.34675 24894 ft 471 kts 31°
2026-05-06 10:55 43.34682 5.37545 24323 ft 472 kts 46°
2026-05-06 10:55 43.36640 5.41195 23754 ft 468 kts 62°
2026-05-06 10:55 43.38031 5.45207 23144 ft 462 kts 67°
2026-05-06 10:56 43.39320 5.49214 22595 ft 455 kts 68°
2026-05-06 10:56 43.40604 5.53171 22034 ft 450 kts 67°
2026-05-06 10:56 43.41871 5.57010 21503 ft 443 kts 67°
2026-05-06 10:56 43.43148 5.60836 20947 ft 437 kts 67°
2026-05-06 10:57 43.44415 5.64609 20417 ft 431 kts 67°
2026-05-06 10:57 43.45666 5.68329 19866 ft 426 kts 67°
2026-05-06 10:57 43.46916 5.72046 19355 ft 419 kts 67°
2026-05-06 10:57 43.48115 5.75617 18832 ft 414 kts 67°
2026-05-06 10:58 43.49313 5.79190 18334 ft 409 kts 67°
2026-05-06 10:58 43.50496 5.82721 17759 ft 404 kts 67°
2026-05-06 10:58 43.51664 5.86215 17149 ft 400 kts 68°
2026-05-06 10:58 43.52821 5.89685 16549 ft 396 kts 68°
2026-05-06 10:59 43.53962 5.93116 15960 ft 392 kts 68°
2026-05-06 10:59 43.55093 5.96520 15394 ft 389 kts 67°
2026-05-06 10:59 43.56211 5.99894 14869 ft 384 kts 67°
2026-05-06 10:59 43.57316 6.03233 14306 ft 382 kts 67°
2026-05-06 11:00 43.58404 6.06559 13771 ft 378 kts 70°
2026-05-06 11:00 43.58974 6.10034 13187 ft 368 kts 91°
2026-05-06 11:00 43.58651 6.13463 12588 ft 357 kts 112°
2026-05-06 11:00 43.57789 6.16664 11948 ft 354 kts 115°
2026-05-06 11:01 43.56910 6.19811 11428 ft 350 kts 114°
2026-05-06 11:01 43.56040 6.22936 10883 ft 347 kts 114°
2026-05-06 11:01 43.55182 6.26029 10354 ft 344 kts 114°
2026-05-06 11:01 43.54347 6.29059 10163 ft 331 kts 114°
2026-05-06 11:02 43.53550 6.31966 10013 ft 317 kts 114°
2026-05-06 11:02 43.52776 6.34780 9606 ft 313 kts 114°
2026-05-06 11:02 43.51999 6.37586 8936 ft 314 kts 113°
2026-05-06 11:02 43.51223 6.40386 8284 ft 311 kts 113°
2026-05-06 11:03 43.50338 6.43028 7994 ft 296 kts 124°
2026-05-06 11:03 43.49141 6.45239 7907 ft 284 kts 136°
2026-05-06 11:03 43.47756 6.47202 7911 ft 286 kts 137°
2026-05-06 11:03 43.46385 6.49172 7911 ft 285 kts 136°
2026-05-06 11:04 43.45015 6.51157 7908 ft 286 kts 136°
2026-05-06 11:04 43.43650 6.53136 7910 ft 285 kts 136°
2026-05-06 11:04 43.42282 6.55117 7902 ft 285 kts 136°
2026-05-06 11:04 43.40911 6.57096 7908 ft 286 kts 136°
2026-05-06 11:05 43.39664 6.59215 7907 ft 290 kts 120°
2026-05-06 11:05 43.39121 6.61903 7898 ft 295 kts 93°
2026-05-06 11:05 43.39448 6.64677 7741 ft 297 kts 70°
2026-05-06 11:05 43.40264 6.67264 7436 ft 295 kts 64°
2026-05-06 11:06 43.41183 6.69784 7097 ft 293 kts 63°
2026-05-06 11:06 43.42081 6.72290 6668 ft 292 kts 64°
2026-05-06 11:06 43.42652 6.73961 6429 ft 290 kts 65°
2026-05-06 11:06 43.43408 6.76259 6057 ft 289 kts 66°
2026-05-06 11:07 43.44207 6.78762 5896 ft 286 kts 66°
2026-05-06 11:07 43.45004 6.81295 5884 ft 288 kts 66°
2026-05-06 11:07 43.45795 6.83822 5881 ft 286 kts 67°
2026-05-06 11:07 43.46584 6.86340 5838 ft 288 kts 66°
2026-05-06 11:08 43.47370 6.88853 5695 ft 286 kts 66°
2026-05-06 11:08 43.48156 6.91368 5587 ft 284 kts 66°
2026-05-06 11:08 43.48938 6.93868 5471 ft 285 kts 66°
2026-05-06 11:08 43.49719 6.96365 5352 ft 282 kts 66°
2026-05-06 11:09 43.50478 6.98793 5274 ft 271 kts 66°
2026-05-06 11:09 43.51198 7.01097 5170 ft 259 kts 66°
2026-05-06 11:09 43.51908 7.03373 4974 ft 251 kts 66°
2026-05-06 11:09 43.52594 7.05575 4629 ft 251 kts 66°
2026-05-06 11:10 43.53280 7.07775 4315 ft 249 kts 66°
2026-05-06 11:10 43.53961 7.09958 3994 ft 247 kts 67°
2026-05-06 11:10 43.54634 7.12124 3685 ft 245 kts 67°
2026-05-06 11:10 43.55304 7.14271 3411 ft 243 kts 67°
2026-05-06 11:11 43.55967 7.16406 3095 ft 242 kts 67°
2026-05-06 11:11 43.56614 7.18490 2990 ft 229 kts 67°
2026-05-06 11:11 43.57215 7.20430 2989 ft 212 kts 67°
2026-05-06 11:11 43.57792 7.22294 3000 ft 217 kts 67°
2026-05-06 11:12 43.58392 7.24235 2991 ft 222 kts 67°
2026-05-06 11:12 43.58995 7.26184 2991 ft 220 kts 67°
2026-05-06 11:12 43.59596 7.28130 2994 ft 221 kts 67°
2026-05-06 11:12 43.60195 7.30070 2994 ft 219 kts 67°
2026-05-06 11:13 43.60790 7.31993 2912 ft 214 kts 67°
2026-05-06 11:13 43.61359 7.33836 2831 ft 204 kts 68°
2026-05-06 11:13 43.61895 7.35573 2803 ft 188 kts 67°
2026-05-06 11:13 43.62582 7.37049 2538 ft 182 kts 35°
2026-05-06 11:14 43.63705 7.37521 2472 ft 162 kts 347°
2026-05-06 11:14 43.64652 7.36738 2525 ft 167 kts 305°
2026-05-06 11:14 43.65256 7.35478 2479 ft 148 kts 297°
2026-05-06 11:14 43.65769 7.34243 2511 ft 150 kts 296°
2026-05-06 11:15 43.66304 7.33009 2376 ft 150 kts 298°
2026-05-06 11:15 43.66868 7.31807 2118 ft 150 kts 300°
2026-05-06 11:15 43.67445 7.30628 1879 ft 147 kts 301°
2026-05-06 11:15 43.68025 7.29454 1625 ft 148 kts 302°
2026-05-06 11:16 43.68519 7.28528 1424 ft 153 kts 298°
2026-05-06 11:16 43.68870 7.27191 1151 ft 144 kts 271°
2026-05-06 11:16 43.68697 7.25903 999 ft 135 kts 237°
2026-05-06 11:16 43.68241 7.24743 744 ft 136 kts 237°
2026-05-06 11:17 43.67650 7.23760 401 ft 133 kts 220°
2026-05-06 11:17 43.66989 7.22889 99 ft 128 kts 221°
2026-05-06 11:17 43.66400 7.22079 30 ft 109 kts 221°
2026-05-06 11:17 43.66105 7.21683 21 ft 26 kts 222°
2026-05-06 11:18 43.66012 7.21554 20 ft 19 kts 223°
2026-05-06 11:18 43.65917 7.21431 21 ft 21 kts 222°
2026-05-06 11:18 43.65806 7.21280 22 ft 24 kts 225°
2026-05-06 11:18 43.65688 7.21102 22 ft 27 kts 228°
2026-05-06 11:19 43.65639 7.20934 23 ft 18 kts 297°
2026-05-06 11:19 43.65762 7.20867 23 ft 24 kts 351°
2026-05-06 11:19 43.65885 7.20840 24 ft 14 kts 351°
2026-05-06 11:19 43.66017 7.20811 21 ft 24 kts 352°
2026-05-06 11:20 43.66121 7.20776 22 ft 4 kts 306°
2026-05-06 11:20 43.66122 7.20729 21 ft 4 kts 265°
2026-05-06 11:20 43.66120 7.20693 21 ft 2 kts 262°
2026-05-06 11:20 43.66119 7.20683 21 ft 0 kts 262°